www.pogodaiklimat.ru

Погода и климат >> Архив погоды >> Россия >> Иркутская область >> Карам


ПОГОДА в Караме

  • Прогноз погоды в Караме
  • Монитор погоды в Караме

АРХИВ ПОГОДЫ в Караме

Время (UTC), дата Ветер
(напр.,м/с)
 
Видим.   Явления Облачность Т
(С)
Тd
(С)
f
(%)
Тe
(С)
Тes
(С)
Комфортность P
(гПа)
Po
(гПа)
Тmin
(С)
Tmax
(С)
R
(мм)
R24
(мм)
S
(см)
06 17.02 штиль 0 50 км 6/0
[Ac trans Ci fib]
-13.2 -16.7 75 -13 -10 1022.6 958.7
09 17.02 ЮЗ 2 50 км 9/0
[Ac trans Cs]
-8.0 -16.7 50 -12 -12 1019.6 957.3
12 17.02 Ю 2
{4}
н/о 10/6 600 м
[Cb cap Cs]
-8.7 -14.7 62 -13 -13 1019.3 956.0 -6.4
15 17.02 ЮЗ 3 н/о 9/4 600 м
[Cb cap Cs]
-11.7 -16.1 70 -18 -18 1020.0 956.0
18 17.02 ЮЗ 2 н/о 8/1 1000 м
[Sc Ci fib]
-14.3 -17.0 80 -19 -19 1020.3 956.0
21 17.02 ЮЗ 2 н/о 5/1 1000 м
[Sc Ci fib]
-17.7 -19.6 85 -23 -23 1021.2 956.0
00 18.02 ЮЗ 1
{5}
2 балла 85 956.0
03 18.02 штиль 0 50 км 4/0
[Cc]
-18.8 -22.1 75 -19 -15 1021.7 956.0 -22.5
06 18.02 В 1 ясно 60 954.7
09 18.02 штиль 0 50 км 6/0
[Ci fib]
-4.4 -14.7 44 -5 -4 1014.7 953.3
12 18.02 ЮЗ 1
{4}
н/о ясно -11.5 -15.0 75 -14 -14 1016.9 953.3 -3.2
15 18.02 ЮЗ 1 н/о 3/0
[Ci fib]
-15.9 -17.8 85 -19 -19 1018.5 954.7
18 18.02 Ю 1 н/о 1/0
[Ci fib]
-18.6 -20.5 85 -21 -21 1019.3 954.7
21 18.02 штиль 0 н/о 3/0
[Ci fib]
-23.9 -25.7 85 -24 -24 1020.8 954.7
00 19.02 ЮЗ 1 20 км 9/0
[Cs]
-22.0 -23.9 85 -25 -25 1021.3 954.7 -25.5 40
03 19.02 ЮЗ 1 20 км 9/0
[Ac trans Cs]
-16.8 -19.4 80 -20 -17 1021.7 957.3
06 19.02 штиль 0 20 км 10/3 600 м
[Sc Ac trans Cs]
-8.2 -11.9 75 -9 -7 1019.6 957.3
09 19.02 штиль 0 20 км 9/4 600 м
[Cb cap Ac trans Cs]
-3.2 -11.0 55 -4 -4 1018.4 956.0
12 19.02 штиль 0
{2}
н/о 10/6 600 м
[Cb cap Cs]
-7.6 -14.2 59 -8 -8 1020.4 957.3 -2.6
15 19.02 штиль 0 н/о 9/4 600 м
[Cb cap Cs]
-10.2 -14.6 70 -10 -10 1023.3 960.0
18 19.02 штиль 0 н/о 9/4 600 м
[Cb cap Cs]
-13.2 -16.7 75 -13 -13 1024.7 960.0
00 20.02 Ю 2
{3}
8 баллов 85 962.7
03 20.02 штиль 0 9 баллов 69 964.0
06 20.02 СВ 1 9 баллов 56 964.0
09 20.02 ЮЗ 1 50 км 9/1 1000 м
[Sc Ac trans Cs]
+1.1 -8.9 47 1024.9 964.0
12 20.02 ЮЗ 2
{3}
н/о 9/3 1000 м
[Sc Cs]
-4.9 -9.8 68 -9 -9 1027.2 965.3 +2.0
15 20.02 ЮЗ 2 н/о 6/4 1000 м
[Sc Ci fib]
-6.9 -10.2 77 -11 -11 1027.7 965.3
18 20.02 ЮЗ 1 н/о 8/0
[Ci fib]
-10.8 -12.8 85 -13 -13 1028.7 965.3
21 20.02 З 2 н/о 9/0
[Cs]
-13.7 -15.0 90 -18 -18 1030.0 965.3
00 21.02 ЮЗ 1
{5}
50 км 9/0
[Ac trans Cs]
-13.3 -14.6 90 -16 -16 1029.8 965.3 -14.4 40
03 21.02 штиль 0 50 км 9/0
[Ac trans Cs]
-12.5 -15.2 80 -13 -10 1030.8 966.7
06 21.02 штиль 0 50 км 5/0
[Ci fib]
-3.7 -10.8 58 -4 1027.7 965.3
09 21.02 штиль 0 50 км 3/0
[Ci fib]
-2.4 -10.2 55 -3 -2 1025.9 964.0
12 21.02 ЮЗ 2
{4}
н/о 3/0
[Ci fib]
-8.5 -13.8 66 -13 -13 1027.3 964.0 -0.5
15 21.02 ЮЗ 1 н/о ясно -14.2 -16.2 85 -17 -17 1028.4 964.0
18 21.02 штиль 0 н/о 3/0
[Ci fib]
-14.7 -16.0 90 -15 -15 1027.5 962.7
21 21.02 штиль 0 н/о 3/0
[Ci fib]
-18.5 -19.7 90 -19 -19 1027.5 961.3
00 22.02 штиль 0
{4}
50 км 3/0
[Ci fib]
-17.9 -19.1 90 -18 -18 1027.1 961.3 -20.1 39
06 22.02 Ю 2 50 км 9/0
[Ac und Cs]
-2.0 -11.5 48 -5 -3 1023.4 962.7
09 22.02 Ю 3 5 баллов 47 964.0
12 22.02 Ю 2
{6}
н/о в посл. час ливневой снег 10/10 600 м
[Cb cap]
-2.3 -4.8 83 -6 -6 1027.6 965.3 +0.6 0.5
15 22.02 Ю 1 7 баллов 70 968.0
18 22.02 ЮЗ 2 9 баллов 85 968.0
21 22.02 ЮЗ 2 слаб. снег н/о 85 968.0
00 23.02 ЮЗ 3
{7}
9 баллов 83 968.0 0.0
03 23.02 ЮЗ 2 9 баллов 77 968.0
06 23.02 ЮЗ 2 7 баллов 74 968.0
09 23.02 З 4 слаб. ливневой снег н/о 77 966.7
12 23.02 З 2
{7}
8 баллов 78 966.7 0.0
15 23.02 З 2 10 баллов 78 968.0
18 23.02 З 2 10 баллов 80 968.0
21 23.02 З 2 7 баллов 80 966.7
00 24.02 З 2
{4}
слаб. ливневой снег н/о 85 965.3 0.0

 

Местоположение метеостанции Карам (Иркутская область, Россия): широта 55.15 долгота 107.60 высота над уровнем моря 496 м.

В архиве по умолчанию представлена погода в Караме за последнюю неделю. Архивные данные за месяц целиком и за предыдущие месяцы, начиная с января 2011 года, Вы можете получить, выбрав интересующий диапазон дат из раскрывающегося списка и нажав кнопку "Ввод!".


*Определитесь, кто Вы:
робот инопланетянин человек

Внимание! Время в таблицах - всемирное. Для получения местного времени необходимо прибавить поправку, которая равна 8 ч.

Смотрите также архив погоды в соседних городах и на ближайших метеорологических станциях:

Погода в Тырке (Иркутская область, Россия) (84 км)
Погода в Даване (Бурятия, Россия) (101 км)
Погода в Казачинске (Иркутская область, Россия) (130 км)
Погода в Солнечной (Иркутская область, Россия) (130 км)
Погода в Томпе (Бурятия, Россия) (134 км)
Погода в Нижнеангарске (Бурятия, Россия) (139 км)
Погода в Орлинге (Иркутская область, Россия) (151 км)
Погода в Баргузинском Заповеднике (Бурятия, Россия) (152 км)
Погода на Большом Ушканьем Острове (Бурятия, Россия) (156 км)
Погода в Жигалове (Иркутская область, Россия) (164 км)

Пояснения к столбцам:

Ветер - указаны скорость ветра в м/с - средняя за 10 мин, порывы в срок и между сроками (в фигурных скобках) и направление, откуда дует ветер: С - северный, СВ - северо-восточный, В - восточный, ЮВ - юго-восточный, Ю - южный, ЮЗ - юго-западный, З - западный, СЗ - северо-западный.
Видимость - горизонтальная дальность видимости в метрах или километрах. При видимости от 1 до 10 км при отсутствии осадков обычно наблюдается дымка, при ухудшении видимости до 1 км и менее - туман. В сухую погоду видимость может ухудшаться дымом, пылью или мглою.
Явления - указаны атмосферные явления, наблюдавшиеся в срок или в последний час перед сроком; фигурными скобками обозначены явления, наблюдавшиеся между сроками (за 1-3 часа до срока); квадратными скобками обозначены град или гололедные отложения с указанием их диаметра в мм.
Облачность - указаны через наклонную черту общая и нижняя облачность в баллах и высота нижней границы облаков в метрах; квадратными скобками обозначены формы облаков: Ci - перистые, Cs - перисто-слоистые, Cc - перисто-кучевые, Ac - высококучевые, As - высокослоистые, Sc - слоисто-кучевые, Ns - слоисто-дождевые, Cu - кучевые, Cb - кучево-дождевые. Подробнее классификацию облаков см. в Атласе облаков (PDF).
T - Температура воздуха - температура, измеренная на высоте 2 м над землей.
Td - Температура точки росы - температура, при понижении до которой содержащийся в воздухе водяной пар достигнет насыщения.
f - Относительная влажность воздуха - влажноcть воздуха, измеренная на высоте 2 м над землей.
Te - Эффективная температура - температура, которую ощущает одетый по сезону человек в тени. Характеристика душности погоды. При расчете учитывается влияние влажности воздуха и скорости ветра на теплоощущения человека.
Tes - Эффективная температура на солнце - температура, которую ощущает человек, с поправкой на солнечный нагрев. Характеристика знойности погоды. Зависит от высоты солнца над горизонтом, облачности и скорости ветра. Ночью, в пасмурную погоду, а также при ветре 12 м/с и более поправка равна нулю.
P - Атмосферное давление - приведенное к уровню моря атмосферное давление.
Po - Атмосферное давление - измеренное на уровне метеостанции атмосферное давление.
Tmin - Минимальная температура - минимум температуры воздуха на высоте 2 м над землей.
Tmax - Максимальная температура - максимум температуры воздуха на высоте 2 м над землей.
R - Количество осадков - Количество выпавших осадков за период времени, мм. При наведении курсора мыши на число - период времени, за который выпало указанное количество осадков.
R24 - Количество осадков - Количество выпавших осадков за 24 часа, мм.
S - Снежный покров - Высота снежного покрова, см. При наведении курсора мыши на число - состояние снежного покрова и степень покрытия местности в баллах.